Simultaneous Nadir Overpasses (SNOs) Predictions

Prediction of SNOs between NOAA-20 and NOAA-19 Satellite Orbit:

Table of predicted SNOs for the next 14.0 days since TLE Epoch: 7/19/2019
Index Date (NOAA-20) Time (NOAA-20) Lat,Lon (NOAA-20) SZA (NOAA-20 ) Date (NOAA-19) Time (NOAA-19) Lat,Lon (NOAA-19) SZA (NOAA-19 ) Distance(km) Time Diff (sec)
1 07/25/2019 19:55:01 79.99,-157.40 62.90 07/25/2019 19:53:51 79.99,-157.23 62.92 3.21 70
2 07/25/2019 20:45:45 -79.97, 10.08 117.13 07/25/2019 20:44:52 -79.99, 9.98 117.08 2.45 53
3 07/25/2019 21:36:31 79.99, 177.19 62.93 07/25/2019 21:35:52 79.99, 177.21 62.94 1.14 39
4 07/25/2019 22:27:16 -80.01, -15.63 117.05 07/25/2019 22:26:53 -79.98, -15.59 117.06 2.96 23
5 07/25/2019 23:18:01 80.00, 151.77 62.95 07/25/2019 23:17:53 79.98, 151.65 62.95 3.09 8
6 07/26/2019 00:08:45 -79.98, -40.75 117.08 07/26/2019 00:08:53 -80.00, -40.84 117.06 2.69 8
7 07/26/2019 00:59:31 80.00, 126.35 62.97 07/26/2019 00:59:53 80.00, 126.40 62.95 0.97 22
8 07/26/2019 01:50:16 -80.02, -66.46 117.00 07/26/2019 01:50:54 -80.00, -66.41 117.04 2.46 38
9 07/26/2019 02:41:01 80.01, 100.93 63.00 07/26/2019 02:41:54 80.00, 100.84 62.97 2.29 53
10 07/26/2019 03:31:45 -79.99, -91.58 117.03 07/26/2019 03:32:54 -80.01, -91.66 117.04 3.05 69




NCC Satellite Simultaneous Nadir Overpasses (SNOs) Prediction Service
